Regional Weather Roundup
Issued by NWS Mt. Holly, NJ

Current Version | Previous Version | Text Only | Print | Product List | Glossary Off
Versions: 1 2 3 4 5 6 7 8 9 10 11 12 13 14 15 16 17 18 19 20 21 22 23 24 25 26 27 28 29 30 31 32 33 34 35 36 37 38 39 40 41 42 43 44 45 46 47 48 49 50

000
ASUS41 KPHI 211610
RWRPHI

REGIONAL WEATHER ROUNDUP
NATIONAL WEATHER SERVICE MOUNT HOLLY NJ
1100 AM EST FRI NOV 21 2014

NOTE:  "FAIR" INDICATES FEW OR NO CLOUDS BELOW 12,000 FEET WITH NO
SIGNIFICANT WEATHER AND/OR OBSTRUCTIONS TO VISIBILITY.

 * = STATION DOES NOT REPORT PRECIPITATION (E.G. RAIN, SNOW, ETC.)
        OR FOG.

NJZ015>026-211700-
SOUTHERN NEW JERSEY

CITY           SKY/WX    TMP DP  RH WIND       PRES   REMARKS
POMONA         MOSUNNY   34   7  32 NW20G26   30.34S WCI  23
RIO GRANDE*    CLOUDY    34   7  32 NW14G20   30.37R WCI  24
MILLVILLE      MOSUNNY   33   7  33 NW21G29   30.38R WCI  21
WRIGHTSTOWN    SUNNY     33   7  33 NW17G23   30.31R WCI  22
MOUNT HOLLY    SUNNY     33   7  33 NW9G25    30.36R WCI  25
TRENTON        SUNNY     32   8  36 NW14G21   30.33R WCI  22

$$
NJZ001>014-211700-
NORTHERN NEW JERSEY

CITY           SKY/WX    TMP DP  RH WIND       PRES   REMARKS
SUSSEX         MOSUNNY   31  11  43 NW12G22   30.28R WCI  22
ANDOVER*         N/A     30   8  39 NW8G16    30.29R WCI  22
MORRISTOWN     MOSUNNY   32   9  37 NW22G30   30.30R WCI  19
NEWARK         MOSUNNY   33   8  35 W14G23    30.30S WCI  23
TETERBORO      SUNNY     33   9  36 W16G23    30.29R WCI  23
CALDWELL       SUNNY     32   8  36 NW12G18   30.29R WCI  23
SOMERVILLE     SUNNY     33   8  35 NW14G22   30.30R WCI  23
ALLAIRE*       SUNNY     34   7  32 NW17G26   30.30F WCI  23
TOMS RIVER*    SUNNY     34   7  32 NW7G17    30.33S WCI  28

$$
PAZ043-044-047-054-055-060>062-066>071-211700-
EASTERN PENNSYLVANIA

CITY           SKY/WX    TMP DP  RH WIND       PRES   REMARKS
PHILADELPHIA   MOSUNNY   33   5  30 NW15      30.38R WCI  23
NORTH PHILA    SUNNY     35   6  29 NW15G26   30.37R WCI  25
BLUE BELL      SUNNY     34  10  37 W10G24    30.34S WCI  26
DOYLESTOWN     SUNNY     30   9  41 NW16G28   30.32S WCI  19
QUAKERTOWN*    MOSUNNY   32   9  37 NW9G22    30.34R WCI  24
POTTSTOWN      SUNNY     31   8  38 NW15G31   30.36R WCI  20
LANCASTER      SUNNY     31   7  36 MISG      30.38R
COATESVILLE    SUNNY     30   9  40 NW18G24   30.36R WCI  18
READING        SUNNY     33   8  35 NW24      30.36R WCI  20
ALLENTOWN      SUNNY     32   8  36 NW17G29   30.34R WCI  21
MOUNT POCONO   CLOUDY    24   9  52 NW20G25   30.20S WCI  10
HAZLETON       CLOUDY    27  10  50 NW9G18    30.30R WCI  17
WILKES BARRE   PTSUNNY   28  10  46 NW14G23   30.30R WCI  17

$$
DEZALL-MDZ008-012-015-019-020-211700-
DELAWARE AND EASTERN MARYLAND

CITY           SKY/WX    TMP DP  RH WIND       PRES   REMARKS
WILMINGTON     SUNNY     33   7  33 NW16G26   30.40R WCI  23
DOVER          MOSUNNY   33   8  35 W18G28    30.38R WCI  22
GEORGETOWN     SUNNY     34   6  31 W16G23    30.41R WCI  24
EASTON         MOSUNNY   36  12  38 NW22G29   30.47R WCI  24
PATUXENT       MOSUNNY   36   9  32 NW17      30.45R WCI  26
OCEAN CITY     SUNNY     35   8  32 NW17G30   30.40R WCI  25
WALLOPS ISLAND MOSUNNY   36   8  31 NW21G28   30.41R WCI  25
CAMBRIDGE      MOSUNNY   36  12  38 NW14G20   30.43S WCI  27
SALISBURY      MOSUNNY   37   9  31 NW15      30.42R WCI  28

$$
PAZ001-021-NYZ056-072-MDZ011-DCZ001-211700-
OTHER NEARBY LOCATIONS

CITY           SKY/WX    TMP DP  RH WIND       PRES   REMARKS
HARRISBURG     MOSUNNY   32   9  38 NW17      30.40R WCI  21
STATE COLLEGE  PTSUNNY   27   9  46 NW14G22   30.36R WCI  15
WILLIAMSPORT   MOSUNNY   31   9  39 W18G28    30.36R WCI  19
BINGHAMTON     CLOUDY    23  14  68 NW14G23   30.23R HAZE    WCI  11
NEW YORK CITY  SUNNY     32   8  36 VRB7G23   30.30R WCI  26
BALTIMORE      MOSUNNY   33   7  33 NW20G26   30.43R WCI  21
WASHINGTON DC  MOSUNNY   35   7  31 N16G23    30.47R WCI  25

$$



USA.gov is the U.S. government's official web portal to all federal, state and local government web resources and services.